This is the latest recevied weather packets stored in our database for station/object W0AKO. If no packets are shown the sender has not sent any weather packets the latest 10 day(s).
| Time | Temp. | Humidity | Pressure | Rain* | Wind** | Luminosity | Snow |
|---|---|---|---|---|---|---|---|
| 1777428679 | 21.67° C | 10% | 1016.4 hPa | 0 mm | - | 6 W/m² | - |
| 1777428375 | 21.67° C | 10% | 1016.3 hPa | 0 mm | - | 10 W/m² | - |
| 1777428070 | 21.67° C | 10% | 1016.4 hPa | 0 mm | - | 15 W/m² | - |
| 1777427767 | 22.22° C | 10% | 1016.2 hPa | 0 mm | - | 18 W/m² | - |
| 1777427465 | 22.22° C | 10% | 1016.4 hPa | 0 mm | - | 22 W/m² | - |
| 1777427159 | 22.22° C | 10% | 1016.2 hPa | 0 mm | - | 26 W/m² | - |
| 1777426858 | 22.22° C | 10% | 1016.2 hPa | 0 mm | - | 32 W/m² | - |
| 1777426554 | 22.22° C | 10% | 1016.5 hPa | 0 mm | - | 37 W/m² | - |
| 1777426250 | 22.22° C | 10% | 1016.2 hPa | 0 mm | - | 42 W/m² | - |
| 1777425945 | 22.78° C | 10% | 1016.2 hPa | 0 mm | - | 48 W/m² | - |
| 1777425641 | 22.78° C | 10% | 1016.3 hPa | 0 mm | - | 55 W/m² | - |
| 1777425337 | 22.78° C | 10% | 1016.4 hPa | 0 mm | - | 73 W/m² | - |
| 1777425033 | 22.78° C | 10% | 1016.2 hPa | 0 mm | - | 79 W/m² | - |
| 1777424729 | 23.33° C | 10% | 1016.5 hPa | 0 mm | - | 94 W/m² | - |
| 1777424424 | 23.33° C | 10% | 1016.4 hPa | 0 mm | - | 111 W/m² | - |
| 1777424120 | 23.33° C | 10% | 1016.4 hPa | 0 mm | - | 119 W/m² | - |
| 1777423818 | 23.33° C | 10% | 1016.5 hPa | 0 mm | - | 139 W/m² | - |
| 1777423514 | 23.33° C | 10% | 1016.2 hPa | 0 mm | - | 143 W/m² | - |
| 1777423209 | 23.33° C | 10% | 1016.4 hPa | 0 mm | - | 166 W/m² | - |
| 1777422903 | 23.33° C | 10% | 1016.5 hPa | 0 mm | - | 154 W/m² | - |
| 1777422599 | 23.33° C | 10% | 1016.5 hPa | 0 mm | - | 170 W/m² | - |
| 1777422295 | 23.89° C | 10% | 1016.5 hPa | 0 mm | - | 181 W/m² | - |
| 1777421989 | 23.33° C | 10% | 1016.5 hPa | 0 mm | - | 226 W/m² | - |
| 1777421684 | 23.33° C | 10% | 1016.4 hPa | 0 mm | - | 246 W/m² | - |
| 1777421379 | 23.89° C | 10% | 1016.7 hPa | 0 mm | - | 236 W/m² | - |
* Rain latest hour (hover to see other rain measurements)
** Current wind speed in m/s (hover to see current wind gust speed)